Location: Unspecified
(0.0000°N, 0.0000°E)
Time: 09:49:33
(UTC+00:00)

A-11 Canister half - All Passes

Search period start: 01 August 2014 00:00
Search period end: 11 August 2014 00:00
Orbit: 1527 x 1683 km, 47.3° (Epoch: 29 July)

Date Brightness Start Highest point End Pass type
(mag) Time Alt. Az. Time Alt. Az. Time Alt. Az.
01 Aug - 03:50:29 10° S 03:56:45 18° SE 04:03:05 10° E visible
01 Aug - 05:51:59 10° SW 06:01:58 89° NW 06:12:09 10° NE daylight
01 Aug - 08:00:59 10° W 08:07:20 18° NW 08:13:44 10° N daylight
01 Aug - 16:40:28 10° NNW 16:49:12 40° NE 16:57:44 10° ESE daylight
01 Aug - 18:45:19 10° WNW 18:54:00 42° SW 19:02:36 10° SSE visible
02 Aug - 03:29:22 10° S 03:35:10 17° SE 03:41:00 10° E visible
02 Aug - 05:30:28 10° SW 05:40:26 86° SE 05:50:35 10° NE visible
02 Aug - 07:38:59 10° W 07:45:44 20° NW 07:52:33 10° N daylight
02 Aug - 16:19:04 10° NNW 16:27:41 38° NE 16:36:04 10° ESE daylight
02 Aug - 18:23:39 10° WNW 18:32:29 45° SW 18:41:13 10° SSE visible
03 Aug - 03:08:20 10° SSE 03:13:34 15° SE 03:18:50 10° E visible
03 Aug - 05:08:58 10° SW 05:18:53 81° SE 05:29:01 10° NE visible
03 Aug - 07:17:03 10° W 07:24:08 22° NW 07:31:19 10° N daylight
03 Aug - 15:57:41 10° NNW 16:06:09 35° NE 16:14:23 10° ESE daylight
03 Aug - 18:01:59 10° WNW 18:10:58 48° SW 18:19:50 10° SSE daylight
04 Aug - 02:47:23 10° SSE 02:51:58 14° SE 02:56:35 10° ESE visible
04 Aug - 04:47:29 10° SW 04:57:21 76° SE 05:07:26 10° NE visible
04 Aug - 06:55:08 10° W 07:02:33 23° NW 07:10:03 10° N daylight
04 Aug - 15:36:19 10° NNW 15:44:37 33° NE 15:52:41 10° ESE daylight
04 Aug - 17:40:21 10° NW 17:49:28 52° SW 17:58:26 10° SSE daylight
05 Aug - 02:26:34 10° SSE 02:30:22 13° SE 02:34:11 10° ESE visible
05 Aug - 04:26:00 10° SSW 04:35:49 71° SE 04:45:51 10° NE visible
05 Aug - 06:33:17 10° W 06:40:57 25° NW 06:48:46 10° N daylight
05 Aug - 15:14:58 10° N 15:23:04 30° NE 15:30:58 10° ESE daylight
05 Aug - 17:18:43 10° NW 17:27:57 56° SW 17:37:01 10° SSE daylight
06 Aug - 02:06:00 10° SSE 02:08:45 11° SE 02:11:31 10° ESE visible
06 Aug - 04:04:32 10° SSW 04:14:16 67° SE 04:24:14 10° NE visible
06 Aug - 06:11:27 10° WSW 06:19:23 27° NW 06:27:27 10° N daylight
06 Aug - 14:53:37 10° N 15:01:32 28° NE 15:09:13 10° ESE daylight
06 Aug - 16:57:06 10° NW 17:06:27 60° SW 17:15:36 10° SSE daylight
07 Aug - 01:46:26 10° SE 01:47:08 10° SE 01:47:50 10° SE visible
07 Aug - 03:43:05 10° SSW 03:52:44 63° SE 04:02:37 10° NE visible
07 Aug - 05:49:39 10° WSW 05:57:48 29° NW 06:06:07 10° N daylight
07 Aug - 14:32:18 10° N 14:39:58 26° NE 14:47:27 10° E daylight
07 Aug - 16:35:30 10° NW 16:44:56 64° SW 16:54:10 10° SSE daylight
08 Aug - 03:21:39 10° SSW 03:31:12 59° SE 03:40:59 10° NE visible
08 Aug - 05:27:52 10° WSW 05:36:14 31° NW 05:44:46 10° N visible
08 Aug - 14:10:59 10° N 14:18:25 25° NE 14:25:39 10° E daylight
08 Aug - 16:13:54 10° NW 16:23:26 69° SW 16:32:44 10° SSE daylight
08 Aug - 18:26:18 10° WSW 18:28:47 11° SW 18:31:17 10° SSW visible
09 Aug - 03:00:13 10° SSW 03:09:40 55° SE 03:19:21 10° NE visible
09 Aug - 05:06:07 10° WSW 05:14:40 33° NW 05:23:24 10° NNE visible
09 Aug - 13:49:42 10° N 13:56:51 23° NE 14:03:49 10° E daylight
09 Aug - 15:52:19 10° NW 16:01:55 74° SW 16:11:16 10° SSE daylight
09 Aug - 18:03:40 10° WSW 18:07:12 12° SW 18:10:44 10° SSW daylight
10 Aug - 02:38:48 10° SSW 02:48:08 51° SE 02:57:41 10° ENE visible
10 Aug - 04:44:24 10° WSW 04:53:06 36° NW 05:02:01 10° NNE visible
10 Aug - 13:28:27 10° N 13:35:17 21° NE 13:41:57 10° E daylight
10 Aug - 15:30:45 10° NW 15:40:25 79° SW 15:49:49 10° SE daylight
10 Aug - 17:41:18 10° WSW 17:45:37 14° SW 17:49:56 10° SSW daylight
